Regional Weather Roundup
Issued by NWS Little Rock, AR

Home | Current Version | Previous Version | Graphics & Text | Print | Product List | Glossary On
Versions: 1 2 3 4 5 6 7 8 9 10 11 12 13 14 15 16 17 18 19 20 21 22 23 24 25 26 27 28 29 30 31 32 33 34 35 36 37 38 39 40 41 42 43 44 45 46 47 48 49 50
000
ASUS44 KLZK 270205
RWRLZK

WEATHER ROUNDUP FOR ARKANSAS
NATIONAL WEATHER SERVICE LITTLE ROCK AR
900 PM CDT TUE MAY 26 2015

NOTE: "FAIR" INDICATES FEW OR NO CLOUDS BELOW 12,000 FEET WITH NO
SIGNIFICANT WEATHER AND/OR OBSTRUCTIONS TO VISIBILITY.

ARZ001-003-010-029-270300-
NORTHWEST ARKANSAS

CITY           SKY/WX    TMP DP  RH WIND       PRES   REMARKS
FAYETTEVILLE   CLEAR     66  64  93 CALM      30.01R
FORT SMITH     MOCLDY    76  67  73 CALM      29.97R
HARRISON       PTCLDY    70  61  73 S6        30.02R
BENTONVILLE    PTCLDY    68  61  77 S3        30.00S
ROGERS         PTCLDY    69  62  78 SE5       30.01S
SILOAM SPGS    CLEAR     66  57  72 S3        30.01S
SPRINGDALE     MOCLDY    72  61  68 S9        30.02R
$$

ARZ004-005-016-270300-
NORTH CENTRAL ARKANSAS

CITY           SKY/WX    TMP DP  RH WIND       PRES   REMARKS
BATESVILLE     CLEAR     72  63  73 SE7       30.04R
FLIPPIN        PTCLDY    73  63  68 S5        29.99R
MTN HOME       PTCLDY    71  63  75 S6        30.00R
$$

ARZ040-041-270300-
WEST CENTRAL ARKANSAS

CITY           SKY/WX    TMP DP  RH WIND       PRES   REMARKS
MENA           CLOUDY    75  70  83 CALM      30.03S
MOUNT IDA      MOCLDY    74  68  81 CALM      30.03R
$$

ARZ009-017-025-026-028-270300-
NORTHEAST ARKANSAS

CITY           SKY/WX    TMP DP  RH WIND       PRES   REMARKS
CORNING        FAIR      72  66  83 S8        30.03R
JONESBORO      CLEAR     69  64  84 S6        30.04R
NEWPORT        CLEAR     71  66  84 S7        30.05R
WALNUT RIDGE   CLEAR     72  64  78 S10       30.03R
BLYTHEVILLE    CLEAR     72  66  81 S5        30.04R
$$

ARZ022-023-033-042-044-270300-
CENTRAL ARKANSAS

CITY           SKY/WX    TMP DP  RH WIND       PRES   REMARKS
LITTLE ROCK    PTCLDY    72  65  78 S6        30.06R
N LITTLE ROCK  PTCLDY    73  69  85 S8        30.06R
JACKSONVILLE   CLEAR     73  67  80 S7        30.05R
SEARCY         CLEAR     69  66  90 CALM      30.06R
HOT SPRINGS    PTCLDY    73  68  84 S6        30.05R
RUSSELLVILLE   PTCLDY    73  67  81 SE3       30.01R
CLINTON        FAIR      68  66  94 CALM      30.05R
$$

ARZ036-270300-
EAST ARKANSAS

CITY           SKY/WX    TMP DP  RH WIND       PRES   REMARKS
WEST MEMPHIS   CLEAR     71  67  87 SW3       30.05R
$$

ARZ050-053-066-070-073-270300-
SOUTHWEST ARKANSAS

CITY           SKY/WX    TMP DP  RH WIND       PRES   REMARKS
ARKADELPHIA    FAIR      75  74  97 CALM      30.05R
CAMDEN         MOCLDY    72  68  88 CALM      30.05R
TEXARKANA      CLOUDY    73  70  90 E5        30.03R
EL DORADO      MOCLDY    74  71  91 CALM      30.05R
DE QUEEN       CLOUDY    74  70  87 MISG      30.00R
$$

ARZ056-057-069-270300-
SOUTHEAST ARKANSAS

CITY           SKY/WX    TMP DP  RH WIND       PRES   REMARKS
PINE BLUFF     CLEAR     73  69  87 S3        30.06R
STUTTGART      CLEAR     72  64  78 S6        30.06R
MONTICELLO     PTCLDY    74  71  91 CALM      30.06R

$$





USA.gov is the U.S. government's official web portal to all federal, state and local government web resources and services.